Regional Weather Roundup
Issued by NWS Lake Charles, LA

Home | Current Version | Previous Version | Text Only | Print | Product List | Glossary On
Versions: 1 2 3 4 5 6 7 8 9 10 11 12 13 14 15 16 17 18 19 20 21 22 23 24 25 26 27 28 29 30 31 32 33 34 35 36 37 38 39 40 41 42 43 44 45 46 47 48 49 50
622
ASUS44 KLCH 221410
RWRLCH
REGIONAL WEATHER ROUNDUP
NATIONAL WEATHER SERVICE LAKE CHARLES LA
900 AM CDT SUN APR 22 2018

Note: "fair" indicates few or no clouds below 12,000 feet with no
significant weather and/or obstructions to visibility.


ACROSS SOUTHEAST TEXAS

CITY           SKY/WX    TMP DP  RH WIND       PRES   REMARKS
BEAUMONT       CLOUDY    63  63 100 NW12      29.96R
BEAUMONT CITY  CLOUDY    65  62  89 NW12      29.97S
ORANGE         CLOUDY    65  65 100 NW7G17    29.98R FOG
JASPER         CLOUDY    65  62  91 NW8       29.99R
$$

ACROSS CENTRAL LOUISIANA

CITY           SKY/WX    TMP DP  RH WIND       PRES   REMARKS
LEESVILLE      CLOUDY    64  62  95 NW8       29.92S
FULLERTON      CLOUDY    66  64  93 CALM      29.90S
ALEXANDRIA INT CLOUDY    65  64  97 NW3       29.90R
ESLER FIELD    CLOUDY    64  64 100 CALM      29.91F
DERIDDER       CLOUDY    65  64  96 NW6       29.95S
OAKDALE        CLOUDY    65  63  93 NW9       29.91R
OPELOUSAS      CLOUDY    69  66  89 S12G17    29.87S
$$

ACROSS SOUTHWEST AND SOUTH CENTRAL LOUISIANA

CITY           SKY/WX    TMP DP  RH WIND       PRES   REMARKS
SULPHUR        CLOUDY    68  65  89 NW14      29.95R
LAKE CHARLES   CLOUDY    69  65  86 NW13      29.93R
CHENNAULT INT  PTSUNNY   66  64  94 NW9       29.90S
CAMERON PHI    PTSUNNY   70  66  88 NW13      29.94R
DEQUINCY       CLOUDY    65  63  94 NW12G18   29.94S
JENNINGS       CLOUDY    68  65  92 W16G22    29.90R
LAFAYETTE      CLOUDY    71  69  93 SW9       29.87F
NEW IBERIA     PTSUNNY   71  65  81 SW14G21   29.88S
ABBEVILLE      CLOUDY    70  69  97 SW13G44   29.89R
PATTERSON      LGT RAIN  69  67  93 S15G26    29.85F
SALT POINT       N/A    N/A N/A N/A W14G24    29.88R
$$

SELECTED SITES ACROSS THE REGION

CITY           SKY/WX    TMP DP  RH WIND       PRES   REMARKS
HOUSTON BUSH   CLOUDY    59  56  89 N12       30.03R
HOUSTON HOBBY  CLOUDY    61  58  90 NW16      30.01R
GALVESTON      CLOUDY    67  65  93 NW15      29.99R
COLLEGE STAT   CLOUDY    55  50  83 NW14      30.09R
CONROE         CLOUDY    56  56 100 N15       30.04R
HUNTSVILLE     CLOUDY    54  52  93 NW10      30.05R
LUFKIN         CLOUDY    56  54  93 NW13G20   30.00R
SHREVEPORT     LGT RAIN  58  57  97 NW13      29.96S
MONROE         CLOUDY    61  59  93 E3        29.93F
NATCHEZ MS     HVY RAIN  64  63  96 E7        29.93F FOG
BATON ROUGE    LGT RAIN  71  67  87 S8        29.88F
N.O. INTL ARPT LGT RAIN  71  70  96 SE10      29.93F FOG
SLIDELL        LGT RAIN  70  68  93 SE10      29.94F FOG
$$

MARINE REPORTS

STATION/POSITION TIME  SKY/WX   TEMP    WIND        PRES    VSBY
                                AIR SEA DIR/SP/G
                 (UTC)          (F)     (DEG/KT/KT) (MB)    (MI)
BUOY 30 S HIGH I 1250            69 69  320/ 16/ 17 1014.6
WVE H/P(F/S)=  4/ 6

SEA RIM ST PARK  1300            65     330/ 10/ 12 1014.9R
PORT ARTHUR      1348            65 67  330/ 10/ 13 1014.6R
SABINE PASS N    1348            67 70  310/  9/ 15 1016.1R
TEXAS POINT      NOT AVBL
CALCASIEU PASS   1348            68 68  330/ 14/ 19 1013.1R
LK CHARLES BEACH 1348            66 68              1013.0R
MARSH ISLAND     NOT AVBL
FRESH WATER LOCK 1348            68 69              1012.9R
AMERADA PASS     1348            67 64  190/  6/ 13 1012.4R
$$




USA.gov is the U.S. government's official web portal to all federal, state and local government web resources and services.